Location: Jaite
(41.2884°N, 81.5737°W)
Time: 08:32:19
(UTC+00:00)

Cosmos 1484 Rocket - Pass Details

Date: 15 November 2025
Orbit: 442 x 473 km, 97.6° (Epoch: 13 December)

Event Time Altitude Azimuth Distance (km) Brightness Sun altitude
Rises 10:38:49 0° 21° (NNE) 2,536 6.4 -18.1°
Reaches altitude 10° 10:41:01 10° 31° (NNE) 1,649 5.5 -17.6°
Maximum altitude 10:44:16 34° 98° (E) 800 4.3 -17.0°
Drops below altitude 10° 10:47:29 10° 165° (SSE) 1,622 5.5 -16.5°
Sets 10:49:38 0° 174° (S) 2,487 6.4 -16.1°
